| time (UTC) | temp C | wind direction | speed KPH | gust KPH | rain 1hr cm | rain 24hr cm | rain mn cm | humidity % | barometer mb |
| 20260503200056 | 26 | 61 | 1.6 | 8.0 | 0.00 | 0.00 | 0.00 | 43 | 1013.7 |
| 20260503194618 | 26 | 23 | 1.6 | 6.4 | 0.00 | 0.00 | 0.00 | 44 | 1013.9 |
| 20260503193058 | 26 | 88 | 1.6 | 6.4 | 0.00 | 0.00 | 0.00 | 40 | 1014.1 |
| 20260503191604 | 25 | 67 | 1.6 | 4.8 | 0.00 | 0.00 | 0.00 | 45 | 1014.3 |
| 20260503184600 | 23 | 96 | 1.6 | 9.7 | 0.00 | 0.00 | 0.00 | 49 | 1014.7 |
| 20260503183107 | 23 | 0 | 4.8 | 9.7 | 0.00 | 0.00 | 0.00 | 46 | 1014.7 |
| 20260503181558 | 23 | 155 | 1.6 | 4.8 | 0.00 | 0.00 | 0.00 | 50 | 1014.9 |
| 20260503180108 | 23 | 65 | 1.6 | 4.8 | 0.00 | 0.00 | 0.00 | 48 | 1015.0 |
| 20260503174557 | 22 | 0 | 1.6 | 8.0 | 0.00 | 0.00 | 0.00 | 50 | 1015.1 |
| 20260503173203 | 21 | 155 | 0.0 | 8.0 | 0.00 | 0.00 | 0.00 | 54 | 1015.2 |
| 20260503171559 | 21 | 188 | 0.0 | 3.2 | 0.00 | 0.00 | 0.00 | 61 | 1015.3 |
| 20260503130113 | 6 | 0 | 0.0 | 0.0 | 0.00 | 0.00 | 0.00 | 96 | 1016.3 |
| 20260503120111 | 7 | 0 | 0.0 | 1.6 | 0.00 | 0.00 | 0.00 | 96 | 1016.4 |
| 20260503100112 | 8 | 142 | 0.0 | 1.6 | 0.00 | 0.00 | 0.00 | 92 | 1016.7 |
| 20260503090104 | 9 | 0 | 0.0 | 0.0 | 0.00 | 0.00 | 0.00 | 90 | 1016.5 |
| 20260503081600 | 10 | 0 | 0.0 | 4.8 | 0.00 | 0.00 | 0.00 | 89 | 1016.4 |
| 20260503071558 | 11 | 0 | 0.0 | 0.0 | 0.00 | 0.00 | 0.00 | 85 | 1016.4 |
| 20260503054609 | 13 | 0 | 0.0 | 6.4 | 0.00 | 0.00 | 0.00 | 78 | 1015.9 |
| 20260503053110 | 14 | 0 | 0.0 | 0.0 | 0.00 | 0.00 | 0.00 | 73 | 1015.9 |
| 20260503051606 | 14 | 0 | 0.0 | 3.2 | 0.00 | 0.00 | 0.00 | 72 | 1015.9 |
| 20260503050107 | 15 | 0 | 0.0 | 0.0 | 0.00 | 0.00 | 0.00 | 69 | 1015.8 |
| 20260503044559 | 16 | 0 | 0.0 | 1.6 | 0.00 | 0.00 | 0.00 | 67 | 1015.7 |
| 20260503043101 | 16 | 0 | 0.0 | 0.0 | 0.00 | 0.00 | 0.00 | 65 | 1015.7 |
| 20260503041558 | 17 | 0 | 0.0 | 3.2 | 0.00 | 0.00 | 0.00 | 63 | 1015.5 |
| 20260503040059 | 18 | 0 | 0.0 | 1.6 | 0.00 | 0.00 | 0.00 | 56 | 1015.4 |
| 20260503034558 | 20 | 0 | 0.0 | 3.2 | 0.00 | 0.00 | 0.00 | 55 | 1015.1 |
| 20260503033100 | 21 | 0 | 0.0 | 3.2 | 0.00 | 0.00 | 0.00 | 51 | 1015.0 |
| 20260503031610 | 22 | 0 | 0.0 | 1.6 | 0.00 | 0.00 | 0.00 | 47 | 1015.0 |
| 20260503030058 | 23 | 0 | 0.0 | 3.2 | 0.00 | 0.00 | 0.00 | 43 | 1014.7 |
| 20260503024604 | 25 | 280 | 0.0 | 4.8 | 0.00 | 0.00 | 0.00 | 40 | 1014.7 |
| 20260503023059 | 26 | 282 | 1.6 | 6.4 | 0.00 | 0.00 | 0.00 | 36 | 1014.7 |
| 20260503021600 | 26 | 292 | 0.0 | 6.4 | 0.00 | 0.00 | 0.00 | 37 | 1014.6 |
| 20260503020104 | 27 | 299 | 3.2 | 6.4 | 0.00 | 0.00 | 0.00 | 36 | 1014.5 |
| 20260503014600 | 27 | 0 | 0.0 | 9.7 | 0.00 | 0.00 | 0.00 | 35 | 1014.5 |
| 20260503013101 | 27 | 0 | 0.0 | 9.7 | 0.00 | 0.00 | 0.00 | 33 | 1014.6 |
| 20260503011609 | 27 | 93 | 1.6 | 9.7 | 0.00 | 0.00 | 0.00 | 35 | 1014.5 |
| 20260503010054 | 26 | 146 | 3.2 | 9.7 | 0.00 | 0.00 | 0.00 | 34 | 1014.5 |
| 20260503004559 | 27 | 256 | 1.6 | 12.9 | 0.00 | 0.00 | 0.00 | 37 | 1014.5 |
| 20260503003055 | 27 | 173 | 4.8 | 14.5 | 0.00 | 0.00 | 0.00 | 33 | 1014.5 |
| 20260503001559 | 28 | 157 | 3.2 | 12.9 | 0.00 | 0.00 | 0.00 | 36 | 1014.6 |
| 20260503000109 | 28 | 175 | 6.4 | 19.3 | 0.00 | 0.00 | 0.00 | 35 | 1014.6 |
| 20260502234559 | 28 | 203 | 4.8 | 14.5 | 0.00 | 0.00 | 0.00 | 36 | 1014.7 |
| 20260502233056 | 28 | 188 | 1.6 | 14.5 | 0.00 | 0.00 | 0.00 | 35 | 1015.1 |
| 20260502231618 | 28 | 124 | 0.0 | 11.3 | 0.00 | 0.00 | 0.00 | 37 | 1015.3 |
| 20260502230055 | 28 | 54 | 1.6 | 11.3 | 0.00 | 0.00 | 0.00 | 39 | 1015.6 |
| 20260502224600 | 27 | 184 | 1.6 | 9.7 | 0.00 | 0.00 | 0.00 | 40 | 1015.7 |
| 20260502223057 | 27 | 119 | 1.6 | 9.7 | 0.00 | 0.00 | 0.00 | 40 | 1015.9 |
| 20260502221559 | 27 | 177 | 6.4 | 12.9 | 0.00 | 0.00 | 0.00 | 39 | 1016.1 |
| 20260502220059 | 27 | 165 | 3.2 | 9.7 | 0.00 | 0.00 | 0.00 | 42 | 1016.2 |
| 20260502214556 | 27 | 177 | 1.6 | 6.4 | 0.00 | 0.00 | 0.00 | 42 | 1016.4 |
| 20260502213104 | 26 | 90 | 1.6 | 6.4 | 0.00 | 0.00 | 0.00 | 41 | 1016.5 |
| 20260502211602 | 26 | 65 | 1.6 | 6.4 | 0.00 | 0.00 | 0.00 | 46 | 1016.6 |
| 20260502210057 | 26 | 81 | 1.6 | 6.4 | 0.00 | 0.00 | 0.00 | 45 | 1016.7 |
| 20260502204558 | 26 | 97 | 3.2 | 8.0 | 0.00 | 0.00 | 0.00 | 49 | 1016.9 |
| 20260502203058 | 25 | 187 | 1.6 | 6.4 | 0.00 | 0.00 | 0.00 | 42 | 1017.0 |
| 20260502201601 | 25 | 53 | 3.2 | 9.7 | 0.00 | 0.00 | 0.00 | 48 | 1017.1 |